[[{"header":{"parameterUnit":"m.s-1","parameterCategory":1,"la1":30.2992,"la2":30.254,"lo1":-89.0895,"lo2":-89.0443,"dy":0.0025,"dx":0.0025,"nx":19,"ny":19,"refTime":"2026-03-22T09:00:00:Z","depth":0,"parameterNumber":2,"parameterNumberName":"U-component_of_WINDS"},"data":[0,0,0,0.3801,0.3801,0.3761,0.3761,0.373,0.373,0,0,0,0,0,0,0,0,0,0,0,0.3825,0.3825,0.3801,0.3801,0.3761,0.3761,0.373,0.373,0,0,0,0,0,0,0,0,0,0,0,0.3825,0.3825,0.3825,0.3801,0.3761,0.3761,0.373,0.3753,0,0,0,0,0,0,0,0,0,0,0.3788,0.3821,0.3825,0.3825,0.38,0.3761,0.3761,0.3754,0.3752,0.3756,0,0.3764,0,0.3747,0.3729,0.3729,0,0,0,0.3792,0.3823,0.3802,0.3825,0.38,0.3762,0.3777,0.3752,0.375,0.3754,0.3763,0.3761,0.3746,0.3729,0.3729,0.3789,0.3789,0,0,0.3794,0.3824,0.3803,0.3801,0.3808,0.3778,0.3775,0.375,0.3763,0.3763,0.376,0.3746,0.3729,0.3729,0.3788,0.3789,0,0,0,0.3806,0.3826,0.3805,0.3803,0.3794,0.3777,0.3774,0.3764,0.3754,0.376,0.3745,0.3729,0.3729,0.3787,0.3788,0.3852,0,0,0,0.3807,0.3833,0.3806,0.3824,0.3795,0.3778,0.3788,0.3756,0.3752,0.3745,0.3729,0.3729,0.3786,0.3788,0.3848,0.3877,0,0,0,0.3823,0.3834,0.3833,0.3825,0.381,0.3778,0.3767,0.3755,0.3744,0.3729,0.3729,0.3786,0.3787,0.3845,0.3871,0.3902,0,0,0,0.3849,0.3888,0.3834,0.3873,0.381,0.3818,0.3767,0.3771,0.3766,0.3729,0.3786,0.3788,0.3844,0.3868,0.3899,0.3933,0.395,0,0,0.3915,0.3898,0.3918,0.3869,0.3894,0.3822,0.3856,0.3823,0.3794,0.3792,0.3793,0.385,0.3871,0.3901,0.4035,0.4048,0,0,0,0.3949,0.3965,0.3965,0.3962,0.3939,0.3922,0.388,0.3869,0.3866,0.3799,0.3868,0.388,0.3896,0.3911,0.3923,0.3935,0.3796,0.3796,0.3796,0.4085,0.4048,0.408,0.4039,0.4037,0.3996,0.3991,0.3968,0.3929,0.3947,0.3945,0.4031,0.4049,0.4058,0.4072,0.396,0.3961,0.3961,0.3961,0.4179,0.4195,0.4146,0.416,0.4121,0.4131,0.4094,0.4067,0.4072,0.4028,0.404,0.3995,0.4074,0.4084,0.3965,0.3965,0.3964,0.3964,0.3963,0.4263,0.4265,0.4251,0.4245,0.4245,0.4202,0.421,0.4174,0.414,0.4152,0.4148,0.4147,0.4141,0.4153,0.4153,0.4154,0.4154,0.4154,0.4154,0.4356,0.4339,0.435,0.4331,0.4326,0.4315,0.4276,0.427,0.4254,0.4227,0.4227,0.4188,0.4089,0.4065,0.4159,0.4158,0.4157,0.4157,0.4157,0.4464,0.4435,0.4452,0.4448,0.4424,0.4428,0.4382,0.4374,0.4364,0.437,0.4329,0.4262,0.424,0.4231,0.4211,0.4336,0.4336,0.4336,0.4336,0.4535,0.4522,0.4533,0.4528,0.452,0.4482,0.4504,0.4476,0.4442,0.4433,0.441,0.4381,0.4373,0.4356,0.4344,0.4324,0.4476,0.4476,0.4476,0.46,0.4585,0.461,0.4578,0.4557,0.4541,0.4562,0.4559,0.4514,0.4481,0.4427,0.4421,0.4373,0.4359,0.4323,0.4305,0.4269,0,0]},{"header":{"parameterUnit":"m.s-1","parameterCategory":1,"la1":30.2992,"la2":30.254,"lo1":-89.0895,"lo2":-89.0443,"dy":0.0025,"dx":0.0025,"nx":19,"ny":19,"refTime":"2026-03-22T09:00:00:Z","depth":0,"parameterNumber":3,"parameterNumberName":"V-component_of_WINDS"},"data":[0,0,0,-1.7213,-1.7215,-1.7319,-1.7319,-1.7432,-1.7433,0,0,0,0,0,0,0,0,0,0,0,-1.7172,-1.7173,-1.7213,-1.7215,-1.7319,-1.732,-1.7432,-1.7433,0,0,0,0,0,0,0,0,0,0,0,-1.7172,-1.7173,-1.7173,-1.7216,-1.7319,-1.732,-1.7432,-1.736,0,0,0,0,0,0,0,0,0,0,-1.7262,-1.7215,-1.7172,-1.7173,-1.7216,-1.7319,-1.732,-1.7357,-1.7364,-1.7377,0,-1.7388,0,-1.7412,-1.7439,-1.744,0,0,0,-1.7222,-1.7209,-1.7246,-1.7173,-1.7217,-1.7319,-1.7274,-1.7361,-1.737,-1.7387,-1.739,-1.7394,-1.7414,-1.744,-1.7441,-1.7498,-1.7498,0,0,-1.7216,-1.7185,-1.724,-1.7252,-1.7237,-1.7271,-1.7277,-1.7367,-1.7366,-1.739,-1.7397,-1.7416,-1.7441,-1.7441,-1.7499,-1.7498,0,0,0,-1.7195,-1.718,-1.7216,-1.7246,-1.7267,-1.7274,-1.7281,-1.7362,-1.7377,-1.7399,-1.7417,-1.7441,-1.7442,-1.7499,-1.7499,-1.7467,0,0,0,-1.7192,-1.7168,-1.7213,-1.7195,-1.7265,-1.7316,-1.7274,-1.7371,-1.7382,-1.7417,-1.7441,-1.7443,-1.7499,-1.7499,-1.7468,-1.7457,0,0,0,-1.7169,-1.7166,-1.7177,-1.7193,-1.7237,-1.7316,-1.7336,-1.7374,-1.7393,-1.744,-1.7444,-1.7499,-1.7499,-1.7469,-1.7459,-1.7464,0,0,0,-1.7134,-1.7145,-1.7176,-1.7197,-1.7236,-1.7296,-1.7335,-1.7381,-1.7418,-1.7442,-1.7499,-1.7499,-1.747,-1.746,-1.7465,-1.7463,-1.746,0,0,-1.7131,-1.7144,-1.7159,-1.719,-1.7237,-1.7283,-1.7325,-1.7387,-1.7418,-1.7469,-1.7471,-1.7468,-1.7459,-1.7464,-1.7451,-1.7448,0,0,0,-1.7147,-1.7157,-1.7177,-1.7212,-1.7262,-1.7303,-1.7363,-1.7386,-1.7432,-1.7439,-1.7473,-1.7468,-1.7472,-1.7473,-1.747,-1.7477,-1.7498,-1.7498,-1.7498,-1.7095,-1.7139,-1.7167,-1.7223,-1.7257,-1.732,-1.735,-1.7392,-1.7423,-1.743,-1.7445,-1.7433,-1.7432,-1.743,-1.7436,-1.7448,-1.7448,-1.7448,-1.7448,-1.7095,-1.7116,-1.7162,-1.7205,-1.725,-1.7286,-1.7348,-1.7369,-1.7408,-1.7424,-1.743,-1.7444,-1.7426,-1.7433,-1.7446,-1.7446,-1.7447,-1.7447,-1.7447,-1.7066,-1.7084,-1.7115,-1.7173,-1.7211,-1.7268,-1.7305,-1.7344,-1.738,-1.7387,-1.7408,-1.7408,-1.7414,-1.7394,-1.7394,-1.7394,-1.7394,-1.7394,-1.7394,-1.7023,-1.7059,-1.7087,-1.7144,-1.7173,-1.7216,-1.7282,-1.7311,-1.7353,-1.7378,-1.7378,-1.7409,-1.7417,-1.7418,-1.7393,-1.7394,-1.7394,-1.7394,-1.7394,-1.7006,-1.7017,-1.706,-1.7089,-1.716,-1.7197,-1.7249,-1.7305,-1.7335,-1.7352,-1.7382,-1.7382,-1.7397,-1.7399,-1.74,-1.7373,-1.7373,-1.7373,-1.7373,-1.6981,-1.6994,-1.7048,-1.7094,-1.7142,-1.7194,-1.724,-1.7292,-1.7346,-1.7367,-1.7377,-1.7382,-1.7382,-1.7397,-1.7399,-1.7401,-1.7375,-1.7375,-1.7375,-1.6973,-1.6994,-1.7026,-1.7083,-1.7142,-1.7191,-1.7236,-1.7285,-1.7348,-1.7376,-1.7384,-1.7384,-1.7393,-1.7393,-1.7419,-1.7422,-1.7426,0,0]}]]